2020-12-11 00:07:50 r, 19.88m,0000000001Hz,0000485681c,0000001.054s, 010.6C,00002191
2020-12-11 00:17:51 r, 19.91m,0000000001Hz,0000500164c,0000001.085s, 010.6C,00002191
2020-12-11 00:27:51 r, 19.91m,0000000001Hz,0000501113c,0000001.087s, 010.3C,00002191
2020-12-11 00:37:50 r, 19.81m,0000000001Hz,0000457916c,0000000.994s, 010.3C,00002191
2020-12-11 00:47:52 r, 19.86m,0000000001Hz,0000477186c,0000001.036s, 010.3C,00002191
2020-12-11 00:57:51 r, 19.87m,0000000001Hz,0000480990c,0000001.044s, 010.3C,00002191
2020-12-11 01:07:50 r, 19.87m,0000000001Hz,0000479828c,0000001.041s, 010.3C,00002191
2020-12-11 01:17:53 r, 19.88m,0000000000Hz,0000486883c,0000001.057s, 010.3C,00002191
2020-12-11 01:27:51 r, 19.90m,0000000001Hz,0000499186c,0000001.083s, 010.3C,00002191
2020-12-11 01:37:50 r, 19.90m,0000000001Hz,0000497279c,0000001.079s, 010.3C,00002191
2020-12-11 01:47:53 r, 19.90m,0000000001Hz,0000498150c,0000001.081s, 010.3C,00002191
2020-12-11 01:57:51 r, 19.88m,0000000001Hz,0000487539c,0000001.058s, 010.3C,00002191
2020-12-11 02:07:50 r, 19.88m,0000000001Hz,0000488756c,0000001.061s, 010.3C,00002191
2020-12-11 02:17:51 r, 19.88m,0000000001Hz,0000486731c,0000001.056s, 010.6C,00002191
2020-12-11 02:27:52 r, 19.92m,0000000001Hz,0000506071c,0000001.098s, 010.3C,00002191
2020-12-11 02:37:50 r, 19.92m,0000000000Hz,0000506758c,0000001.100s, 010.3C,00002191
2020-12-11 02:47:51 r, 19.90m,0000000001Hz,0000499125c,0000001.083s, 010.3C,00002191
2020-12-11 02:57:51 r, 19.91m,0000000001Hz,0000501817c,0000001.089s, 010.3C,00002191
2020-12-11 03:07:50 r, 19.89m,0000000001Hz,0000491540c,0000001.067s, 010.3C,00002191
2020-12-11 03:17:51 r, 19.95m,0000000001Hz,0000519561c,0000001.128s, 010.3C,00002191
2020-12-11 03:27:52 r, 19.93m,0000000001Hz,0000508775c,0000001.104s, 010.3C,00002191
2020-12-11 03:37:50 r, 19.95m,0000000000Hz,0000521188c,0000001.131s, 010.3C,00002191
2020-12-11 03:47:52 r, 19.93m,0000000001Hz,0000509650c,0000001.106s, 010.3C,00002191
2020-12-11 03:57:51 r, 19.95m,0000000001Hz,0000519938c,0000001.128s, 009.9C,00002191
2020-12-11 04:07:50 r, 19.95m,0000000001Hz,0000518202c,0000001.125s, 010.3C,00002191
2020-12-11 04:17:52 r, 19.92m,0000000001Hz,0000506844c,0000001.100s, 010.3C,00002191
2020-12-11 04:27:51 r, 20.00m,0000000001Hz,0000543950c,0000001.180s, 010.3C,00002191
2020-12-11 04:37:50 r, 19.96m,0000000001Hz,0000524204c,0000001.138s, 009.9C,00002191
2020-12-11 04:47:51 r, 19.93m,0000000001Hz,0000510276c,0000001.107s, 010.3C,00002191
2020-12-11 04:57:51 r, 19.96m,0000000000Hz,0000527655c,0000001.145s, 010.3C,00002191
2020-12-11 05:07:50 r, 19.92m,0000000001Hz,0000505735c,0000001.098s, 010.3C,00002191
2020-12-11 05:17:52 r, 19.88m,0000000001Hz,0000484784c,0000001.052s, 010.3C,00002191
2020-12-11 05:27:51 r, 19.90m,0000000001Hz,0000498058c,0000001.081s, 010.3C,00002191
2020-12-11 05:37:50 r, 19.89m,0000000001Hz,0000490841c,0000001.065s, 010.3C,00002191
2020-12-11 05:47:51 r, 19.86m,0000000000Hz,0000477281c,0000001.036s, 010.3C,00002191
2020-12-11 05:57:52 r, 19.88m,0000000001Hz,0000484625c,0000001.052s, 010.3C,00002191
2020-12-11 06:07:50 r, 19.83m,0000000001Hz,0000465532c,0000001.010s, 010.3C,00002191
2020-12-11 06:17:52 r, 19.84m,0000000001Hz,0000467461c,0000001.014s, 009.9C,00002191
2020-12-11 06:27:51 r, 19.70m,0000000001Hz,0000415711c,0000000.902s, 009.9C,00002191
2020-12-11 06:37:50 r, 19.62m,0000000001Hz,0000382904c,0000000.831s, 009.9C,00002191
2020-12-11 06:47:52 r, 19.59m,0000000001Hz,0000371549c,0000000.806s, 009.9C,00002191
2020-12-11 06:57:51 r, 19.40m,0000000002Hz,0000312015c,0000000.677s, 009.9C,00002191
2020-12-11 07:07:50 r, 18.85m,0000000003Hz,0000188996c,0000000.410s, 009.9C,00002191
2020-12-11 07:17:51 r, 17.81m,0000000006Hz,0000072597c,0000000.158s, 009.9C,00002191
2020-12-11 07:27:51 r, 16.28m,0000000025Hz,0000017794c,0000000.039s, 009.9C,00002191
2020-12-11 07:37:50 r, 14.62m,0000000118Hz,0000003881c,0000000.008s, 009.9C,00002191
2020-12-11 07:47:51 r, 12.71m,0000000697Hz,0000000000c,0000000.000s, 009.9C,00002191
2020-12-11 07:57:51 r, 10.83m,0000003936Hz,0000000000c,0000000.000s, 009.9C,00002191
2020-12-11 08:07:50 r, 09.29m,0000016270Hz,0000000000c,0000000.000s, 009.9C,00002191
2020-12-11 08:17:51 r, 08.25m,0000042432Hz,0000000000c,0000000.000s, 009.9C,00002191
2020-12-11 08:27:52 r, 07.58m,0000078523Hz,0000000000c,0000000.000s, 010.3C,00002191
2020-12-11 08:37:50 r, 07.15m,0000117242Hz,0000000000c,0000000.000s, 010.3C,00002191
2020-12-11 08:47:50 r, 06.84m,0000156153Hz,0000000000c,0000000.000s, 010.3C,00002191
2020-12-11 08:57:51 r, 06.51m,0000211149Hz,0000000000c,0000000.000s, 009.9C,00002191
2020-12-11 09:07:50 r, 06.20m,0000280209Hz,0000000000c,0000000.000s, 010.3C,00002191
2020-12-11 09:17:50 r, 06.00m,0000336581Hz,0000000000c,0000000.000s, 010.3C,00002191
2020-12-11 09:27:51 r, 00.00m,0000416511Hz,0000000000c,0000000.000s, 010.3C,00002191
2020-12-11 09:37:50 r, 00.00m,0000521671Hz,0000000000c,0000000.000s, 009.9C,00002191
2020-12-11 09:47:50 r, 00.00m,0000551800Hz,0000000000c,0000000.000s, 010.3C,00002191
2020-12-11 09:57:52 r, 00.00m,0000598562Hz,0000000000c,0000000.000s, 010.6C,00002191
2020-12-11 10:07:51 r, 00.00m,0000598559Hz,0000000000c,0000000.000s, 010.9C,00002191
2020-12-11 10:17:50 r, 00.00m,0000598438Hz,0000000000c,0000000.000s, 010.9C,00002191
2020-12-11 10:27:52 r, 00.00m,0000598379Hz,0000000000c,0000000.000s, 011.2C,00002191
2020-12-11 10:37:51 r, 00.00m,0000598504Hz,0000000000c,0000000.000s, 011.2C,00002191
2020-12-11 10:47:50 r, 00.00m,0000598507Hz,0000000000c,0000000.000s, 011.2C,00002191
2020-12-11 10:57:51 r, 00.00m,0000598391Hz,0000000000c,0000000.000s, 011.2C,00002191
2020-12-11 11:07:51 r, 00.00m,0000598336Hz,0000000000c,0000000.000s, 011.2C,00002191
2020-12-11 11:17:50 r, 00.00m,0000598322Hz,0000000000c,0000000.000s, 011.2C,00002191
2020-12-11 11:27:51 r, 00.00m,0000598452Hz,0000000000c,0000000.000s, 011.2C,00002191
2020-12-11 11:37:51 r, 00.00m,0000598333Hz,0000000000c,0000000.000s, 011.2C,00002191
2020-12-11 11:47:50 r, 00.00m,0000598398Hz,0000000000c,0000000.000s, 011.2C,00002191
2020-12-11 11:57:51 r, 00.00m,0000598373Hz,0000000000c,0000000.000s, 011.2C,00002191
2020-12-11 12:07:52 r, 00.00m,0000598391Hz,0000000000c,0000000.000s, 011.6C,00002191
2020-12-11 12:17:50 r, 00.00m,0000598239Hz,0000000000c,0000000.000s, 011.2C,00002191
2020-12-11 12:27:53 r, 00.00m,0000598244Hz,0000000000c,0000000.000s, 011.2C,00002191
2020-12-11 12:37:51 r, 00.00m,0000598376Hz,0000000000c,0000000.000s, 011.6C,00002191
2020-12-11 12:47:50 r, 00.00m,0000598293Hz,0000000000c,0000000.000s, 011.6C,00002191
2020-12-11 12:57:52 r, 00.00m,0000598260Hz,0000000000c,0000000.000s, 011.6C,00002191
2020-12-11 13:07:51 r, 00.00m,0000598291Hz,0000000000c,0000000.000s, 011.6C,00002191
2020-12-11 13:17:50 r, 00.00m,0000598423Hz,0000000000c,0000000.000s, 011.2C,00002191
2020-12-11 13:27:51 r, 00.00m,0000598343Hz,0000000000c,0000000.000s, 011.2C,00002191
2020-12-11 13:37:51 r, 00.00m,0000598243Hz,0000000000c,0000000.000s, 011.2C,00002191
2020-12-11 13:47:50 r, 00.00m,0000598327Hz,0000000000c,0000000.000s, 011.2C,00002191
2020-12-11 13:57:51 r, 00.00m,0000598319Hz,0000000000c,0000000.000s, 011.2C,00002191
2020-12-11 14:07:52 r, 00.00m,0000598373Hz,0000000000c,0000000.000s, 010.9C,00002191
2020-12-11 14:17:50 r, 00.00m,0000550880Hz,0000000000c,0000000.000s, 010.9C,00002191
2020-12-11 14:27:52 r, 00.00m,0000530581Hz,0000000000c,0000000.000s, 010.9C,00002191
2020-12-11 14:37:51 r, 00.00m,0000452287Hz,0000000000c,0000000.000s, 010.9C,00002191
2020-12-11 14:47:50 r, 00.00m,0000430889Hz,0000000000c,0000000.000s, 010.6C,00002191
2020-12-11 14:57:53 r, 05.86m,0000381264Hz,0000000000c,0000000.000s, 010.6C,00002191
2020-12-11 15:07:51 r, 05.96m,0000350133Hz,0000000000c,0000000.000s, 010.9C,00002191
2020-12-11 15:17:50 r, 06.14m,0000295997Hz,0000000000c,0000000.000s, 010.6C,00002191
2020-12-11 15:27:52 r, 06.31m,0000251960Hz,0000000000c,0000000.000s, 010.6C,00002191
2020-12-11 15:37:51 r, 06.54m,0000203865Hz,0000000000c,0000000.000s, 010.6C,00002191
2020-12-11 15:47:50 r, 06.72m,0000173978Hz,0000000000c,0000000.000s, 010.3C,00002191
2020-12-11 15:57:51 r, 07.01m,0000132829Hz,0000000000c,0000000.000s, 010.6C,00002191
2020-12-11 16:07:52 r, 07.56m,0000079945Hz,0000000000c,0000000.000s, 010.3C,00002191
2020-12-11 16:17:50 r, 08.17m,0000045583Hz,0000000000c,0000000.000s, 010.6C,00002191
2020-12-11 16:27:51 r, 08.75m,0000026750Hz,0000000000c,0000000.000s, 010.6C,00002191
2020-12-11 16:37:51 r, 09.97m,0000008746Hz,0000000000c,0000000.000s, 010.6C,00002191
2020-12-11 16:47:50 r, 11.37m,0000002385Hz,0000000000c,0000000.000s, 010.6C,00002191
2020-12-11 16:57:52 r, 13.17m,0000000454Hz,0000000000c,0000000.000s, 010.3C,00002191
2020-12-11 17:07:51 r, 15.33m,0000000062Hz,0000007431c,0000000.016s, 010.3C,00002191
2020-12-11 17:17:50 r, 17.09m,0000000012Hz,0000037468c,0000000.081s, 010.3C,00002191
2020-12-11 17:27:53 r, 18.41m,0000000004Hz,0000125939c,0000000.273s, 010.3C,00002191
2020-12-11 17:37:51 r, 19.03m,0000000002Hz,0000223786c,0000000.486s, 010.3C,00002191
2020-12-11 17:47:50 r, 19.34m,0000000002Hz,0000297534c,0000000.646s, 010.3C,00002191
2020-12-11 17:57:51 r, 19.46m,0000000002Hz,0000331958c,0000000.720s, 009.9C,00002191
2020-12-11 18:07:52 r, 19.54m,0000000001Hz,0000356152c,0000000.773s, 009.9C,00002191
2020-12-11 18:17:50 r, 19.47m,0000000002Hz,0000334082c,0000000.725s, 009.9C,00002191
2020-12-11 18:27:51 r, 19.47m,0000000001Hz,0000334146c,0000000.725s, 009.9C,00002191
2020-12-11 18:37:51 r, 19.43m,0000000002Hz,0000323565c,0000000.702s, 010.3C,00002191
2020-12-11 18:47:50 r, 19.44m,0000000001Hz,0000326114c,0000000.708s, 010.3C,00002191
2020-12-11 18:57:51 r, 19.44m,0000000001Hz,0000323593c,0000000.702s, 010.3C,00002191
2020-12-11 19:07:52 r, 19.41m,0000000001Hz,0000316582c,0000000.687s, 010.6C,00002191
2020-12-11 19:17:50 r, 19.46m,0000000002Hz,0000329899c,0000000.716s, 010.6C,00002191
2020-12-11 19:27:52 r, 19.38m,0000000001Hz,0000307328c,0000000.667s, 010.6C,00002191
2020-12-11 19:37:51 r, 19.42m,0000000001Hz,0000320656c,0000000.696s, 010.3C,00002191
2020-12-11 19:47:50 r, 19.48m,0000000002Hz,0000337016c,0000000.731s, 010.3C,00002191
2020-12-11 19:57:52 r, 19.49m,0000000002Hz,0000340845c,0000000.740s, 010.3C,00002191
2020-12-11 20:07:51 r, 19.50m,0000000001Hz,0000342909c,0000000.744s, 010.3C,00002191
2020-12-11 20:17:50 r, 19.59m,0000000002Hz,0000374260c,0000000.812s, 010.3C,00002191
2020-12-11 20:27:51 r, 19.47m,0000000002Hz,0000334057c,0000000.725s, 010.3C,00002191
2020-12-11 20:37:51 r, 19.58m,0000000001Hz,0000368600c,0000000.800s, 010.3C,00002191
2020-12-11 20:47:50 r, 19.46m,0000000001Hz,0000331285c,0000000.719s, 010.3C,00002191
2020-12-11 20:57:51 r, 19.46m,0000000001Hz,0000332028c,0000000.721s, 010.3C,00002191
2020-12-11 21:07:51 r, 19.43m,0000000001Hz,0000322632c,0000000.700s, 009.9C,00002191
2020-12-11 21:17:50 r, 19.42m,0000000001Hz,0000317788c,0000000.690s, 009.9C,00002191
2020-12-11 21:27:51 r, 19.35m,0000000002Hz,0000299428c,0000000.650s, 009.9C,00002191
2020-12-11 21:37:52 r, 19.34m,0000000002Hz,0000295514c,0000000.641s, 009.9C,00002191
2020-12-11 21:47:50 r, 19.36m,0000000001Hz,0000301843c,0000000.655s, 009.9C,00002191
2020-12-11 21:57:52 r, 19.37m,0000000001Hz,0000303364c,0000000.658s, 009.9C,00002191
2020-12-11 22:07:51 r, 19.39m,0000000002Hz,0000310021c,0000000.673s, 009.9C,00002191
2020-12-11 22:17:50 r, 19.39m,0000000002Hz,0000310145c,0000000.673s, 009.9C,00002191
2020-12-11 22:27:52 r, 19.45m,0000000001Hz,0000329300c,0000000.715s, 009.9C,00002191
2020-12-11 22:37:51 r, 19.30m,0000000001Hz,0000285090c,0000000.619s, 009.9C,00002191
2020-12-11 22:47:50 r, 19.35m,0000000002Hz,0000299220c,0000000.649s, 009.9C,00002191
2020-12-11 22:57:51 r, 19.26m,0000000001Hz,0000275605c,0000000.598s, 009.9C,00002191
2020-12-11 23:07:51 r, 19.32m,0000000002Hz,0000290862c,0000000.631s, 009.6C,00002191
2020-12-11 23:17:50 r, 19.32m,0000000001Hz,0000292832c,0000000.635s, 009.6C,00002191
2020-12-11 23:27:51 r, 19.38m,0000000002Hz,0000309115c,0000000.671s, 009.9C,00002191
2020-12-11 23:37:51 r, 19.35m,0000000002Hz,0000299425c,0000000.650s, 009.9C,00002191
2020-12-11 23:47:50 r, 19.34m,0000000002Hz,0000296419c,0000000.643s, 009.9C,00002191
2020-12-11 23:57:52 r, 19.33m,0000000002Hz,0000294759c,0000000.640s, 009.9C,00002191
